sat.trackr.live / text

‹ back to catalog

STARLINK-32466

NORAD 61859 · 2024-202Q

PAYLOAD ACTIVE UNKNOWN

§ Identity

Operator
Country
US
Launch date
2024-11-07
Launch site
AFETR
Launch vehicle
Mass (kg)
RCS (m²)

Purposes: comms

External: N2YO · Heavens-Above · Gunter

§ Orbital elements

Epoch: 2026-05-24T18:35:05.584416Z

Period
94.27 min
Inclination
43.0025°
Eccentricity
0.0001232
Mean motion
15.27581028 rev/d
Perigee alt
482.2 km
Apogee alt
483.9 km
Semi-major
6,861.2 km
B*
7.7672e-5
RAAN
168.3174°
Arg perigee
289.4169°
Mean anomaly
70.6549°
Rev number
8,697

§ Raw data

STARLINK-324661 61859U 24202Q   26144.77437019  .00001876  00000+0  77672-4 0  99982 61859  43.0025 168.3174 0001232 289.4169  70.6549 15.27581028 86972

JSON: /api/v1/satellites/61859 · /tle

For live sub-satellite position, see the globe view (requires WebGL).

§ Visibility from observer

Set your observer location to see the next 7 days of passes ≥ 10°. The values pass through the URL so the page stays shareable.

No JS? Fill the form by hand. The geolocation button needs JavaScript.